Regional Weather Roundup
Issued by NWS

Home | Current Version | Previous Version | Text Only | Print | Product List | Glossary On
Versions: 1 2 3 4 5 6 7 8 9 10 11 12 13 14 15 16 17 18 19 20 21 22 23 24 25 26 27 28 29 30 31 32 33 34 35 36 37 38 39 40 41 42 43 44 45 46 47 48 49 50
000
ASUS44 KOUN 240810
RWROK

WEATHER ROUNDUP FOR OKLAHOMA
NATIONAL WEATHER SERVICE NORMAN OK
200 AM CST MON NOV 24 2014

NOTE: "FAIR" INDICATES FEW OR NO CLOUDS BELOW 12,000 FEET WITH NO
      SIGNIFICANT WEATHER AND/OR OBSTRUCTIONS TO VISIBILITY.

OKZ001>007-009>012-014-015-017-240900-
NORTHWEST OKLAHOMA AND THE PANHANDLE

CITY           SKY/WX    TMP DP  RH WIND       PRES   REMARKS
GAGE           CLEAR     30  19  63 W10       29.88R WCI  21
ENID/WOODRING  CLEAR     37  30  75 W8        29.80R WCI  31
$$

OKZ016-021>023-033>039-044-045-240900-
SOUTHWEST OKLAHOMA

CITY           SKY/WX    TMP DP  RH WIND       PRES   REMARKS
LAWTON/REGL    CLEAR     40  32  73 NW6       29.87R
LAWTON/FT SILL CLEAR     45  26  46 NW13      29.86R
FREDERICK      CLEAR     40  30  67 NW16      29.87R WCI  31
CLINTON        CLEAR     39  20  46 NW13      29.90R WCI  31
HOBART         CLEAR     39  24  55 NW16      29.89R WCI  30
ALTUS AFB      CLEAR     37  28  70 W8        29.91R WCI  31
$$

OKZ018>020-024>031-240900-
CENTRAL OKLAHOMA

CITY           SKY/WX    TMP DP  RH WIND       PRES   REMARKS
OKLAHOMA CITY  PTCLDY    40  30  67 NW9       29.83R WCI  34
OKC/WILEY POST CLEAR     42  29  59 NW13      29.83R
OKC/TINKER AFB CLEAR     42  29  61 NW12      29.82R
STILLWATER     CLEAR     39  30  70 W6        29.79R WCI  35
GUTHRIE        CLEAR     39  31  72 NW8       29.82R WCI  33
$$

OKZ008-013-054>072-240900-
NORTHEAST OKLAHOMA

CITY           SKY/WX    TMP DP  RH WIND       PRES   REMARKS
TULSA          MOCLDY    43  37  79 W13       29.74R
TULSA/JONES    CLEAR     42  37  82 VRB6      29.76R
PONCA CITY     CLEAR     39  29  67 W9        29.77R WCI  33
BARTLESVILLE   MOCLDY    39  35  86 W12G20    29.75R WCI  32
MUSKOGEE       CLEAR     41  37  86 W10       29.76R
$$

OKZ032-040>043-046>053-073>077-240900-
SOUTH CENTRAL/SOUTHEAST OKLAHOMA

CITY           SKY/WX    TMP DP  RH WIND       PRES   REMARKS
ARDMORE/DWNTWN CLEAR     43  36  75 CALM      29.85R
MCALESTER      PTCLDY    44  36  73 W6        29.80R
$$



USA.gov is the U.S. government's official web portal to all federal, state and local government web resources and services.